COSMOS 1275 DEB

Satellite information

Favourite Embed

Satellite Type and Status

DEBRISIN ORBIT

Key statistics

Satellite COSMOS 1275 DEB at a glance.

Uptime

16264

Days in orbit

Revolutions

≈ 14.3

Per day

Orbit

LEO

Low Earth Orbit

Inclination

82.8

Latest

Satellite identification and parameters

Extended collection of information and parameters for COSMOS 1275 DEB.

Object identification

Identified? True

Debris? True

Object name: COSMOS 1275 DEB

International designator: 1981-053JM

Object number (NORAD): 14557

Object ID (CCSDS): 14557

Country: COMMONWEALTH OF INDEPENDENT STATES (CIS)

Current information (Y/N): Y

RCS size: SMALL

Orbital parameters

Period: 100.676 minutes

Inclination: 82.788 deg

SMA: 7168.766 km

Apoapsis: 816.764 km

Periapsis: 764.499 km

RAAN: 122.0256 deg

Eccentricy: 0.00364532

Argument of periapsis: 108.0831 deg

Mean anomaly: 312.5112 deg

Mean motion: 14.30329645 rev/day

Mean motion (dot): 0.00009559 rev/day2

B* drag term: 0.0036471717 1/REarth

Two-line elements (TLE)

Creation date: Dec. 12, 2025, 10:14 a.m.

Reference frame: TEME

Reference center: EARTH

Epoch: Dec. 12, 2025, 3:26 a.m. UTC

TLE line 0: 0 COSMOS 1275 DEB

TLE line 1: 1 14557U 81053JM 25346.14312692 .00009559 00000-0 36472-2 0 9999

TLE line 2: 2 14557 82.7880 122.0256 0036453 108.0831 312.5112 14.30329645253065

Live tracking on map

Real-time ground track for satellite COSMOS 1275 DEB.

In-orbit conjunctions

A list of the most updated potential collisions computed for object COSMOS 1275 DEB.

Target Orbit TCA Probability of collision Miss distance Type
FENGYUN 1C DEB SSO 2025-06-07 02:37:57 0.0001447835 111.0 (m) DEBRIS
DMSP 5D-2 F11 DEB SSO 2025-04-15 14:33:18 0.0001323113 159.0 (m) DEBRIS
CZ-6A DEB LEO 2024-12-24 12:56:59 0.000177003 941.0 (m) DEBRIS
CZ-6A DEB LEO 2024-11-05 06:18:56 0.0001452317 916.0 (m) DEBRIS
CZ-6A DEB LEO 2024-09-19 07:42:35 0.000170085 477.0 (m) DEBRIS

Associated space launch

Navigation satellite providing location information for the Tsiklon-B navigation system

COSMOS 1275 DEB was lifted into orbit during the mission ‘Kosmos-3M | Parus 27’, on board a Kosmos-3M space rocket.

The launch took place on June 4, 1981, 3:41 p.m. from 132/2.

For more information about the launch, click the button.

Launch to space Kosmos-3M | Parus 27
Kosmos-3M | Parus 27

Agency: N/A

Status: Launch Successful

Launch date: June 4, 1981, 3:41 p.m. UTC

Rocket: Kosmos-3M

Launch pad: 132/2

Location: Plesetsk Cosmodrome, Russian Federation

...

Latest news about this satellite

There are no fresh news available about this satellite. Check back as we update our databases every day.


Newsletter sign-up

Weekly statistics, charts and insights to help you stay on top of the space industry.